Location: Newark
(44.3681°N, 100.3364°W)
Time: 00:42:14
(UTC+00:00)

deb Explorer IX - Pass Details

Date: 27 February 2020
Orbit: 547 x 1101 km, 38.8° (Epoch: 28 March)

Event Time Altitude Azimuth Distance (km) Brightness Sun altitude
Rises 15:37:42 0° 238° (WSW) 3,171 ? 21.2°
Reaches altitude 10° 15:40:29 10° 229° (SW) 2,153 ? 21.6°
Maximum altitude 15:44:52 32° 167° (SSE) 1,087 ? 22.2°
Drops below altitude 10° 15:48:47 10° 104° (ESE) 1,916 ? 22.7°
Sets 15:51:07 0° 94° (E) 2,768 ? 23.1°
